Location: Cincinnati Observatory Center
(39.1389°N, 84.4225°W)
Time: 23:21:16
(UTC-05:00)

Amateur Radio Satellites - All Passes

Search period start: 17 December 2014 22:51
Search period end: 18 December 2014 22:51
Location: Cincinnati Observatory Center, 39.1389°N, 84.4225°W

Satellite Date Start Highest point End Downlink Frequencies (MHz)
Time Altitude Azimuth
ISS 17 Dec 22:53:41 22:56:20 23° 228° (SW) 22:58:58 145.825
SO-50 17 Dec 22:54:15 22:58:36 45° 307° (NW) 23:03:07 436.795
TISAT 1 17 Dec 22:56:24 22:58:54 16° 66° (ENE) 23:01:24 437.305
DUCHIFAT 1 17 Dec 22:59:32 23:03:14 28° 97° (E) 23:06:55 145.980
DX 1 17 Dec 23:01:18 23:03:15 13° 268° (W) 23:05:13 434.975-435.025
CUBEBUG 1 17 Dec 23:02:07 23:06:29 77° 76° (ENE) 23:10:51 437.445
QB50P2 17 Dec 23:10:29 23:14:30 39° 99° (E) 23:18:30 145.880/145.840
DANDE 17 Dec 23:12:04 23:17:41 23° 273° (W) 23:23:50 436.750
BUGSAT 1 17 Dec 23:14:16 23:17:55 32° 98° (E) 23:21:35 437.445
POLYITAN 1 17 Dec 23:18:01 23:22:11 48° 100° (E) 23:26:20 437.675
NANOSAT C BR1 17 Dec 23:23:09 23:27:19 55° 100° (E) 23:31:30 145.865
BEESAT 2 17 Dec 23:26:28 23:30:38 61° 57° (ENE) 23:34:44 435.950
TIGRISAT 17 Dec 23:27:54 23:32:36 85° 284° (WNW) 23:37:20 435.000
ESTCUBE 1 17 Dec 23:30:16 23:34:40 49° 260° (W) 23:39:06 437.505/2401.250
QB50P1 17 Dec 23:36:56 23:41:12 81° 103° (ESE) 23:45:28 145.935-145.965
HUMSAT D 17 Dec 23:40:28 23:42:28 13° 268° (W) 23:44:30 437.325/437.525
RS-15 17 Dec 23:41:17 23:51:06 36° 254° (WSW) 00:01:20 29.354- 29.394
VELOX 1 17 Dec 23:41:41 23:44:12 15° 267° (W) 23:46:44 145.980
50 SAT 17 Dec 23:42:38 23:44:55 15° 268° (W) 23:47:12 437.505
PCSat 17 Dec 23:50:05 23:55:22 51° 57° (ENE) 00:00:37 145.827
ITUPSAT 1 17 Dec 23:52:06 23:53:08 11° 60° (ENE) 23:54:10 437.325
SWISSCUBE 17 Dec 23:52:09 23:53:56 12° 61° (ENE) 23:55:43 437.505
UNISAT 6 17 Dec 23:55:34 23:59:59 43° 288° (WNW) 00:04:26 437.425
POPSAT HIP 1 18 Dec 00:05:21 00:09:26 47° 287° (WNW) 00:13:31 437.405
M-CUBED/EXP-1 PRIME 18 Dec 00:06:53 00:09:07 13° 56° (ENE) 00:11:21 437.505
BEESAT 18 Dec 00:15:59 00:19:23 20° 65° (ENE) 00:22:46 436.000
AIST 2 18 Dec 00:16:11 00:20:30 86° 239° (WSW) 00:24:44 435.215
SPROUT 18 Dec 00:23:04 00:27:17 59° 259° (W) 00:31:31 437.525
YUBILEINY 18 Dec 00:24:45 00:33:19 62° 92° (E) 00:41:52 435.215
ANTELSAT 18 Dec 00:27:54 00:31:24 21° 293° (WNW) 00:34:55 437.575/2403.000
BEESAT 3 18 Dec 00:28:11 00:31:37 25° 248° (WSW) 00:35:01 437.485
TISAT 1 18 Dec 00:30:22 00:34:22 42° 261° (W) 00:38:23 437.305
DUCHIFAT 1 18 Dec 00:35:38 00:38:57 23° 292° (WNW) 00:42:16 145.980
QB50P2 18 Dec 00:47:19 00:50:06 17° 294° (WNW) 00:52:53 145.880/145.840
BUGSAT 1 18 Dec 00:50:24 00:53:11 18° 293° (WNW) 00:55:58 437.445
POLYITAN 1 18 Dec 00:55:23 00:57:42 15° 295° (WNW) 01:00:02 437.675
NANOSAT C BR1 18 Dec 01:00:50 01:02:43 13° 296° (WNW) 01:04:36 145.865
BEESAT 2 18 Dec 01:06:57 01:08:20 11° 253° (WSW) 01:09:42 435.950
AUBIESAT-1 18 Dec 01:15:29 01:20:07 54° 68° (ENE) 01:24:54 437.475
ITUPSAT 1 18 Dec 01:25:28 01:30:17 85° 256° (WSW) 01:35:08 437.325
SWISSCUBE 18 Dec 01:26:20 01:31:08 76° 257° (WSW) 01:35:57 437.505
PCSat 18 Dec 01:34:25 01:38:22 21° 254° (WSW) 01:42:19 145.827
Oscar 19 18 Dec 01:38:26 01:43:14 37° 98° (E) 01:48:00 437.125/150
M-CUBED/EXP-1 PRIME 18 Dec 01:38:38 01:43:24 81° 253° (WSW) 01:48:21 437.505
ITAMSAT 1 18 Dec 01:48:31 01:51:40 16° 92° (E) 01:54:48 435.822/435.867
BEESAT 18 Dec 01:52:19 01:56:53 44° 261° (W) 02:01:28 436.000
O/OREOS (USA 219) 18 Dec 01:58:45 02:03:11 70° 292° (WNW) 02:07:38 437.305
KKS-1 18 Dec 02:08:41 02:13:00 56° 73° (ENE) 02:17:20 437.445
STARS 18 Dec 02:11:56 02:16:01 39° 71° (ENE) 02:20:06 437.465
YUBILEINY 18 Dec 02:23:30 02:30:40 28° 291° (WNW) 02:37:51 435.215
AUBIESAT-1 18 Dec 02:52:20 02:55:20 17° 264° (W) 02:58:25 437.475
Gurwin Techsat 1B 18 Dec 03:03:40 03:08:53 54° 100° (E) 03:14:03 435.225
AO-7 18 Dec 03:09:11 03:12:29 13° 88° (E) 03:15:46 29.400- 29.500
Oscar 19 18 Dec 03:18:07 03:22:22 26° 294° (WNW) 03:26:36 437.125/150
ITAMSAT 1 18 Dec 03:26:26 03:31:29 57° 288° (WNW) 03:36:32 435.822/435.867
VERMONT LUNAR 18 Dec 03:29:58 03:31:44 13° 145° (SE) 03:33:31 437.305
HORYU 2 18 Dec 03:30:39 03:34:51 37° 98° (E) 03:39:02 437.375
AIST 1 18 Dec 03:32:27 03:35:23 18° 73° (ENE) 03:38:17
KKS-1 18 Dec 03:48:09 03:49:58 12° 269° (W) 03:51:48 437.445
STARS 18 Dec 03:49:47 03:52:38 17° 267° (W) 03:55:31 437.465
GONETS M04 18 Dec 04:29:31 04:32:33 12° 74° (ENE) 04:35:33
MOZHAYETS 4 18 Dec 04:32:52 04:37:25 59° 74° (ENE) 04:42:01
Gurwin Techsat 1B 18 Dec 04:44:46 04:48:24 19° 297° (WNW) 04:52:01 435.225
PRISM 18 Dec 04:48:38 04:50:32 13° 64° (ENE) 04:52:25 437.425
AO-7 18 Dec 04:58:05 05:06:30 75° 106° (ESE) 05:14:50 29.400- 29.500
PHONESAT 2.4 18 Dec 05:05:59 05:09:24 40° 155° (SSE) 05:12:50 2401.200-2431.200
VERMONT LUNAR 18 Dec 05:06:08 05:09:36 55° 159° (SSE) 05:13:04 437.305
HORYU 2 18 Dec 05:07:57 05:11:15 20° 294° (WNW) 05:14:32 437.375
AIST 1 18 Dec 05:09:17 05:13:08 33° 269° (W) 05:16:58
JAS-2 18 Dec 05:32:04 05:37:42 56° 100° (E) 05:42:50 435.910
SO-50 18 Dec 05:47:05 05:50:21 18° 43° (NE) 05:53:37 436.795
CUBESAT XI-V 18 Dec 05:48:24 05:52:18 27° 69° (ENE) 05:56:13 437.345
Cubesat XI-IV 18 Dec 05:59:42 06:03:40 21° 94° (E) 06:07:37 437.490
MOZHAYETS 4 18 Dec 06:12:56 06:15:00 13° 270° (W) 06:17:05
GONETS M04 18 Dec 06:18:54 06:27:40 73° 93° (E) 06:36:29
PRISM 18 Dec 06:21:25 06:25:34 55° 259° (W) 06:29:45 437.425
STRAND 1 18 Dec 06:25:58 06:31:00 61° 73° (ENE) 06:36:02 437.568
CUTE-I 18 Dec 06:33:00 06:38:03 43° 99° (E) 06:43:05 437.470
PHONESAT 2.4 18 Dec 06:44:22 06:48:01 77° 352° (N) 06:51:39 2401.200-2431.200
VERMONT LUNAR 18 Dec 06:44:25 06:47:56 70° 356° (N) 06:51:28 437.305
AO-7 18 Dec 06:52:04 06:58:27 25° 305° (NW) 07:04:50 29.400- 29.500
JAS-2 18 Dec 07:18:23 07:22:12 19° 300° (WNW) 07:25:48 435.910
CUBESAT XI-V 18 Dec 07:25:35 07:29:38 29° 264° (W) 07:33:42 437.345
SO-50 18 Dec 07:26:31 07:31:24 72° 241° (WSW) 07:36:17 436.795
Cubesat XI-IV 18 Dec 07:38:53 07:43:57 46° 289° (WNW) 07:48:59 437.490
STRAND 1 18 Dec 08:07:45 08:10:34 15° 268° (W) 08:13:22 437.568
CUTE-I 18 Dec 08:13:43 08:17:50 23° 295° (WNW) 08:21:57 437.470
GONETS M04 18 Dec 08:18:37 08:25:19 24° 293° (WNW) 08:32:05
VERMONT LUNAR 18 Dec 08:22:51 08:26:23 89° 193° (SSW) 08:29:56 437.305
PHONESAT 2.4 18 Dec 08:23:12 08:26:50 79° 9° (N) 08:30:29 2401.200-2431.200
AAUSAT CUBESAT 2 18 Dec 08:40:33 08:41:27 11° 90° (E) 08:42:21 437.432
CANX-2 18 Dec 08:42:06 08:45:23 21° 94° (E) 08:48:38 2200.000
DOVE 4 18 Dec 08:53:51 08:56:57 17° 93° (E) 09:00:08 437.250
COMPASS 1 18 Dec 09:11:25 09:15:09 29° 96° (E) 09:18:51 437.405
BRITE-PL 18 Dec 09:11:45 09:16:16 48° 100° (E) 09:21:06 437.365/2234.400
CUTE 1.7 + AOD 2 18 Dec 09:12:39 09:16:46 42° 98° (E) 09:20:51 437.475
SEEDS 18 Dec 09:12:59 09:16:58 36° 97° (E) 09:20:55 437.485
MaSat-1 18 Dec 09:18:12 09:20:03 20° 110° (ESE) 09:21:50 437.345
UNISAT 6 18 Dec 09:19:15 09:21:33 14° 64° (ENE) 09:23:51 437.425
HO-68 18 Dec 09:27:08 09:34:14 64° 103° (ESE) 09:41:17 435.675
CINEMA 3 18 Dec 09:38:44 09:42:52 29° 96° (E) 09:47:07 145.822/145.860
Oscar 11 18 Dec 09:39:50 09:43:32 26° 96° (E) 09:47:12 145.826/435.025
CUBEBUG 2 18 Dec 09:40:53 09:44:09 19° 93° (E) 09:47:27 437.445
DELFI C3 18 Dec 09:44:43 09:48:06 24° 95° (E) 09:51:26 145.870
UKube-1 18 Dec 09:46:47 09:50:12 22° 95° (E) 09:53:35 .
ANTELSAT 18 Dec 09:49:10 09:52:55 29° 69° (ENE) 09:56:45 437.575/2403.000
DUCHIFAT 1 18 Dec 09:52:07 09:55:09 20° 67° (ENE) 09:58:11 145.980
GOMX 1 18 Dec 09:52:12 09:56:55 89° 283° (WNW) 10:01:58 467.674
VERMONT LUNAR 18 Dec 10:01:28 10:04:30 27° 209° (SSW) 10:07:32 437.305
PHONESAT 2.4 18 Dec 10:02:01 10:05:26 39° 205° (SSW) 10:08:51 2401.200-2431.200
ZACube-1 18 Dec 10:03:06 10:06:41 23° 95° (E) 10:10:19 437.345
QB50P2 18 Dec 10:03:06 10:06:37 26° 69° (ENE) 10:10:10 145.880/145.840
CUSAT 1 18 Dec 10:04:01 10:07:07 38° 91° (E) 10:11:06 437.405
BUGSAT 1 18 Dec 10:04:15 10:07:21 21° 68° (ENE) 10:10:27 437.445
POLYITAN 1 18 Dec 10:10:41 10:14:25 32° 71° (ENE) 10:18:11 437.675
AAUSAT CUBESAT 2 18 Dec 10:13:18 10:17:29 59° 285° (WNW) 10:21:38 437.432
NANOSAT C BR1 18 Dec 10:15:14 10:19:04 35° 71° (ENE) 10:22:55 145.865
CANX-2 18 Dec 10:17:31 10:21:20 31° 289° (WNW) 10:25:09 2200.000
UWE-3 18 Dec 10:23:53 10:28:17 46° 99° (E) 10:32:45 435.000/436.395/437.385
TIGRISAT 18 Dec 10:25:48 10:30:05 74° 75° (ENE) 10:34:30 435.000
QB50P1 18 Dec 10:28:53 10:32:58 51° 74° (ENE) 10:37:04 145.935-145.965
FUNcube-1 18 Dec 10:30:06 10:34:26 44° 99° (E) 10:38:48 145.935
DOVE 4 18 Dec 10:30:20 10:34:52 49° 287° (WNW) 10:39:40 437.250
O/OREOS (USA 219) 18 Dec 10:31:28 10:34:36 18° 57° (ENE) 10:37:44 437.305
YUBILEINY 18 Dec 10:36:52 10:44:07 28° 69° (ENE) 10:51:19 435.215
AISAT 18 Dec 10:36:59 10:40:49 28° 97° (E) 10:44:38 437.250
DANDE 18 Dec 10:42:42 10:45:51 80° 280° (W) 10:50:02 436.750
COMPASS 1 18 Dec 10:47:23 10:50:42 22° 292° (WNW) 10:54:01 437.405
DX 1 18 Dec 10:48:07 10:52:26 69° 285° (WNW) 10:56:45 434.975-435.025
SEEDS 18 Dec 10:49:32 10:52:31 19° 293° (WNW) 10:55:29 437.485
CUTE 1.7 + AOD 2 18 Dec 10:49:37 10:52:20 17° 294° (WNW) 10:55:03 437.475
BRITE-PL 18 Dec 10:51:27 10:54:29 17° 293° (WNW) 10:57:38 437.365/2234.400
UNISAT 6 18 Dec 10:53:38 10:57:51 52° 260° (W) 11:02:11 437.425
CUBEBUG 1 18 Dec 10:53:49 10:56:21 15° 93° (E) 10:58:53 437.445
POPSAT HIP 1 18 Dec 10:57:06 11:01:17 73° 258° (WSW) 11:05:30 437.405
HO-68 18 Dec 11:15:51 11:21:22 25° 300° (WNW) 11:26:53 435.675
CINEMA 3 18 Dec 11:15:59 11:19:57 28° 290° (WNW) 11:24:03 145.822/145.860
Oscar 11 18 Dec 11:15:59 11:19:36 26° 291° (WNW) 11:23:11 145.826/435.025
CUBEBUG 2 18 Dec 11:16:38 11:20:58 41° 288° (WNW) 11:25:22 437.445
DELFI C3 18 Dec 11:19:54 11:23:17 25° 291° (WNW) 11:26:39 145.870
50 SAT 18 Dec 11:22:02 11:26:12 81° 102° (ESE) 11:30:22 437.505
UKube-1 18 Dec 11:22:34 11:26:20 30° 291° (WNW) 11:30:06 .
HUMSAT D 18 Dec 11:23:35 11:27:55 78° 284° (WNW) 11:32:15 437.325/437.525
ESTCUBE 1 18 Dec 11:24:25 11:28:35 36° 98° (E) 11:32:43 437.505/2401.250
ANTELSAT 18 Dec 11:26:15 11:29:42 23° 266° (W) 11:33:15 437.575/2403.000
DUCHIFAT 1 18 Dec 11:27:00 11:30:47 32° 263° (W) 11:34:35 145.980
VELOX 1 18 Dec 11:31:24 11:35:49 72° 285° (WNW) 11:40:13 145.980
ZACube-1 18 Dec 11:39:03 11:43:03 32° 289° (WNW) 11:47:06 437.345
QB50P2 18 Dec 11:39:04 11:42:29 24° 265° (W) 11:45:55 145.880/145.840
BUGSAT 1 18 Dec 11:39:07 11:42:41 28° 263° (W) 11:46:15 437.445
POLYITAN 1 18 Dec 11:47:22 11:50:25 19° 266° (W) 11:53:29 437.675
CUSAT 1 18 Dec 11:49:34 11:50:50 11° 300° (WNW) 11:52:12 437.405
RS-15 18 Dec 11:50:54 12:00:59 45° 109° (ESE) 12:11:01 29.354- 29.394
NANOSAT C BR1 18 Dec 11:52:13 11:55:03 18° 266° (W) 11:57:54 145.865
UWE-3 18 Dec 12:01:29 12:04:28 17° 294° (WNW) 12:07:29 435.000/436.395/437.385
FUNcube-1 18 Dec 12:07:29 12:10:26 17° 294° (WNW) 12:13:24 145.935
QB50P1 18 Dec 12:07:29 12:09:09 12° 269° (W) 12:10:48 145.935-145.965
O/OREOS (USA 219) 18 Dec 12:09:55 12:14:12 43° 254° (WSW) 12:18:29 437.305
SPROUT 18 Dec 12:11:31 12:15:06 25° 96° (E) 12:18:40 437.525
AISAT 18 Dec 12:13:43 12:17:19 25° 292° (WNW) 12:20:56 437.250
TISAT 1 18 Dec 12:16:37 12:20:23 31° 97° (E) 12:24:07 437.305
CUBEBUG 1 18 Dec 12:28:49 12:32:56 43° 288° (WNW) 12:37:01 437.445
YUBILEINY 18 Dec 12:32:56 12:41:24 60° 269° (W) 12:49:52 435.215
Oscar 19 18 Dec 12:54:09 12:59:03 48° 71° (ENE) 13:04:00 437.125/150
ESTCUBE 1 18 Dec 13:01:55 13:05:12 20° 293° (WNW) 13:08:28 437.505/2401.250
ITAMSAT 1 18 Dec 13:05:16 13:09:18 23° 65° (ENE) 13:13:19 435.822/435.867
BEESAT 2 18 Dec 13:22:21 13:24:48 16° 109° (ESE) 13:27:16 435.950
ITUPSAT 1 18 Dec 13:27:57 13:32:00 27° 96° (E) 13:36:00 437.325
SWISSCUBE 18 Dec 13:28:26 13:32:38 30° 97° (E) 13:36:47 437.505
SPROUT 18 Dec 13:47:32 13:51:06 26° 291° (WNW) 13:54:39 437.525
TISAT 1 18 Dec 13:52:51 13:56:01 21° 292° (WNW) 13:59:11 437.305
BEESAT 18 Dec 13:53:39 13:58:19 51° 100° (E) 14:02:56 436.000
ISS 18 Dec 13:57:42 14:00:08 19° 131° (SE) 14:02:34 145.825
RS-15 18 Dec 14:02:31 14:13:05 53° 311° (NW) 14:23:47 29.354- 29.394
KKS-1 18 Dec 14:03:15 14:04:56 12° 91° (E) 14:06:37 437.445
AO-7 18 Dec 14:06:34 14:12:09 20° 52° (NE) 14:17:44 29.400- 29.500
AIST 2 18 Dec 14:14:04 14:17:36 26° 112° (ESE) 14:21:11 435.215
BEESAT 3 18 Dec 14:20:55 14:25:00 80° 119° (ESE) 14:29:10 437.485
Gurwin Techsat 1B 18 Dec 14:23:36 14:28:54 76° 75° (ENE) 14:34:13 435.225
HORYU 2 18 Dec 14:28:22 14:32:16 31° 69° (ENE) 14:36:12 437.375
PCSat 18 Dec 14:30:28 14:35:45 59° 114° (ESE) 14:41:05 145.827
AUBIESAT-1 18 Dec 14:34:45 14:39:02 50° 104° (ESE) 14:42:55 437.475
Oscar 19 18 Dec 14:35:01 14:38:37 19° 267° (W) 14:42:15 437.125/150
ITAMSAT 1 18 Dec 14:43:38 14:48:30 41° 261° (W) 14:53:24 435.822/435.867
M-CUBED/EXP-1 PRIME 18 Dec 14:58:26 15:02:54 77° 289° (WNW) 15:06:57 437.505
BEESAT 2 18 Dec 14:58:42 15:02:39 45° 305° (NW) 15:06:41 435.950
ITUPSAT 1 18 Dec 15:05:42 15:09:50 30° 292° (WNW) 15:13:56 437.325
SWISSCUBE 18 Dec 15:06:24 15:10:22 27° 292° (WNW) 15:14:19 437.505
BEESAT 18 Dec 15:32:44 15:35:43 17° 296° (WNW) 15:38:41 436.000
ISS 18 Dec 15:33:21 15:36:31 42° 327° (NNW) 15:39:41 145.825
KKS-1 18 Dec 15:37:31 15:41:55 59° 286° (WNW) 15:46:19 437.445
STARS 18 Dec 15:39:05 15:43:32 85° 284° (WNW) 15:47:59 437.465
JUGNU 18 Dec 15:39:09 15:40:33 11° 183° (S) 15:41:57 437.505
JAS-2 18 Dec 15:41:54 15:48:06 28° 65° (ENE) 15:53:55 435.910
AIST 2 18 Dec 15:52:24 15:56:07 29° 309° (NW) 15:59:54 435.215
AO-7 18 Dec 15:55:28 16:03:48 88° 72° (ENE) 16:12:12 29.400- 29.500
BEESAT 3 18 Dec 16:01:59 16:03:44 12° 318° (NW) 16:05:31 437.485
AIST 1 18 Dec 16:02:56 16:04:21 11° 84° (E) 16:05:46
HORYU 2 18 Dec 16:05:24 16:08:56 23° 265° (W) 16:12:31 437.375
Gurwin Techsat 1B 18 Dec 16:07:23 16:09:24 12° 270° (W) 16:11:25 435.225
AUBIESAT-1 18 Dec 16:10:56 16:13:28 15° 302° (WNW) 16:15:54 437.475
PCSat 18 Dec 16:15:28 16:19:33 21° 312° (NW) 16:23:40 145.827
RS-15 18 Dec 16:21:22 16:28:53 20° 342° (NNW) 16:36:32 29.354- 29.394
MOZHAYETS 4 18 Dec 16:30:45 16:33:29 15° 92° (E) 16:36:12
GONETS M04 18 Dec 16:31:09 16:38:56 34° 71° (ENE) 16:46:35
SRMSAT 18 Dec 16:37:56 16:39:26 11° 180° (S) 16:40:56 437.500
ISS 18 Dec 17:12:19 17:13:47 12° 346° (NNW) 17:15:15 145.825
Cubesat XI-IV 18 Dec 17:20:31 17:25:12 32° 68° (ENE) 17:29:52 437.490
JAS-2 18 Dec 17:25:03 17:32:42 60° 259° (W) 17:39:49 435.910
AIST 1 18 Dec 17:37:09 17:41:28 55° 280° (W) 17:45:46
AO-7 18 Dec 17:52:25 17:57:31 17° 269° (W) 18:02:39 29.400- 29.500
CUTE-I 18 Dec 17:53:46 17:59:02 64° 73° (ENE) 18:04:18 437.470
PRISM 18 Dec 18:06:24 18:09:39 22° 95° (E) 18:12:51 437.425
MOZHAYETS 4 18 Dec 18:06:30 18:10:58 48° 287° (WNW) 18:15:23
GONETS M04 18 Dec 18:27:38 18:35:58 51° 271° (W) 18:44:14
STRAND 1 18 Dec 18:38:26 18:42:22 22° 94° (E) 18:46:16 437.568
RS-15 18 Dec 18:39:32 18:47:14 20° 19° (NNE) 18:55:06 29.354- 29.394
MaSat-1 18 Dec 18:50:08 18:52:06 22° 61° (ENE) 18:54:09 437.345
Cubesat XI-IV 18 Dec 19:00:33 19:05:13 31° 264° (W) 19:09:54 437.490
CUBESAT XI-V 18 Dec 19:22:49 19:27:27 77° 102° (ESE) 19:32:02 437.345
CANX-2 18 Dec 19:35:29 19:37:44 14° 65° (ENE) 19:39:59 2200.000
CUTE-I 18 Dec 19:36:34 19:39:31 15° 269° (W) 19:42:27 437.470
DANDE 18 Dec 19:41:06 19:45:39 17° 66° (ENE) 19:50:32 436.750
PRISM 18 Dec 19:41:36 19:45:10 28° 291° (WNW) 19:48:41 437.425
HO-68 18 Dec 19:54:26 20:01:05 43° 66° (ENE) 20:07:45 435.675
DOVE 4 18 Dec 20:00:34 20:02:25 13° 64° (ENE) 20:04:17 437.250
COMPASS 1 18 Dec 20:02:53 20:05:49 19° 67° (ENE) 20:08:46 437.405
SEEDS 18 Dec 20:04:53 20:08:13 23° 69° (ENE) 20:11:36 437.485
CUTE 1.7 + AOD 2 18 Dec 20:05:04 20:08:39 27° 70° (ENE) 20:12:15 437.475
STRAND 1 18 Dec 20:16:56 20:21:40 40° 290° (WNW) 20:26:24 437.568
BRITE-PL 18 Dec 20:22:33 20:26:34 45° 73° (ENE) 20:30:31 437.365/2234.400
ISS 18 Dec 20:26:24 20:29:07 23° 26° (NNE) 20:31:49 145.825
DELFI C3 18 Dec 20:33:34 20:35:49 15° 66° (ENE) 20:38:05 145.870
Oscar 11 18 Dec 20:34:22 20:37:25 19° 67° (ENE) 20:40:28 145.826/435.025
CUBEBUG 2 18 Dec 20:40:06 20:41:59 13° 64° (ENE) 20:43:54 437.445
CINEMA 3 18 Dec 20:40:47 20:43:56 21° 68° (ENE) 20:47:07 145.822/145.860
CUSAT 1 18 Dec 20:41:26 20:48:46 49° 76° (ENE) 20:56:56 437.405
UKube-1 18 Dec 20:41:36 20:44:32 18° 66° (ENE) 20:47:29 .
RS-15 18 Dec 20:52:11 21:03:07 52° 49° (NE) 21:14:28 29.354- 29.394
ZACube-1 18 Dec 20:59:37 21:02:05 15° 65° (ENE) 21:04:35 437.345
GOMX 1 18 Dec 21:00:08 21:04:18 87° 77° (ENE) 21:08:28 467.674
CUBESAT XI-V 18 Dec 21:03:12 21:04:13 11° 298° (WNW) 21:05:13 437.345
AAUSAT CUBESAT 2 18 Dec 21:03:13 21:07:24 80° 76° (ENE) 21:11:39 437.432
CANX-2 18 Dec 21:09:06 21:13:13 49° 261° (W) 21:17:24 2200.000
UWE-3 18 Dec 21:20:49 21:24:29 31° 70° (ENE) 21:28:13 435.000/436.395/437.385
DANDE 18 Dec 21:22:18 21:29:53 80° 81° (E) 21:38:35 436.750
FUNcube-1 18 Dec 21:25:42 21:29:18 29° 70° (ENE) 21:32:58 145.935
AISAT 18 Dec 21:34:39 21:38:09 23° 68° (ENE) 21:41:39 437.250
DOVE 4 18 Dec 21:35:45 21:39:46 49° 261° (W) 21:43:49 437.250
COMPASS 1 18 Dec 21:37:25 21:41:16 35° 263° (W) 21:45:11 437.405
SO-50 18 Dec 21:40:13 21:44:32 48° 116° (ESE) 21:49:01 436.795
SEEDS 18 Dec 21:40:16 21:43:54 28° 264° (W) 21:47:35 437.485
CUTE 1.7 + AOD 2 18 Dec 21:41:04 21:44:31 24° 265° (W) 21:48:00 437.475
HO-68 18 Dec 21:42:21 21:48:48 36° 263° (W) 21:55:18 435.675
DX 1 18 Dec 21:42:31 21:46:52 88° 76° (ENE) 21:51:14 434.975-435.025
BEESAT 2 18 Dec 21:44:26 21:44:53 10° 40° (NE) 21:45:20 435.950
CUBEBUG 1 18 Dec 21:50:27 21:52:15 12° 63° (ENE) 21:54:02 437.445
ISS 18 Dec 22:02:41 22:05:49 44° 223° (SW) 22:08:56 145.825
BRITE-PL 18 Dec 22:03:26 22:05:21 13° 268° (W) 22:07:15 437.365/2234.400
DELFI C3 18 Dec 22:06:47 22:10:42 44° 261° (W) 22:14:40 145.870
Oscar 11 18 Dec 22:09:19 22:13:18 36° 262° (W) 22:17:20 145.826/435.025
50 SAT 18 Dec 22:09:29 22:13:16 42° 73° (ENE) 22:17:06 437.505
CUBEBUG 2 18 Dec 22:14:10 22:18:13 51° 260° (W) 22:22:21 437.445
HUMSAT D 18 Dec 22:14:48 22:18:51 64° 75° (ENE) 22:22:59 437.325/437.525
UKube-1 18 Dec 22:16:21 22:20:23 38° 261° (W) 22:24:27 .
CINEMA 3 18 Dec 22:17:24 22:20:59 28° 264° (W) 22:24:39 145.822/145.860
TIGRISAT 18 Dec 22:19:42 22:22:55 18° 93° (E) 22:26:07 435.000
ESTCUBE 1 18 Dec 22:23:21 22:27:19 30° 70° (ENE) 22:31:17 437.505/2401.250
CUSAT 1 18 Dec 22:24:49 22:31:42 37° 270° (W) 22:39:14 437.405
VELOX 1 18 Dec 22:28:04 22:32:29 88° 75° (ENE) 22:36:56 145.980
ZACube-1 18 Dec 22:34:09 22:38:05 42° 262° (W) 22:42:07 437.345
AIST 2 18 Dec 22:37:23 22:40:05 16° 44° (NE) 22:42:46 435.215
BEESAT 3 18 Dec 22:41:56 22:45:48 35° 52° (NE) 22:49:35 437.485
POPSAT HIP 1 18 Dec 22:44:36 22:47:43 20° 94° (E) 22:50:50 437.405
